Location: Clatteringshaws Loch
(55.0508°N, 4.2860°W)
Time: 11:06:54
(UTC+01:00)

ALOS - Visible Passes

Search period start: 19 April 2014 00:00
Search period end: 29 April 2014 00:00
Orbit: 689 x 691 km, 98.0° (Epoch: 18 April)

Date Brightness Start Highest point End Pass type
(mag) Time Alt. Az. Time Alt. Az. Time Alt. Az.
19 Apr 3.2 22:32:13 11° S 22:36:31 46° W 22:41:04 10° NNW visible
20 Apr 2.4 21:33:07 10° SSE 21:37:44 62° ENE 21:42:23 10° N visible
20 Apr 4.3 23:11:55 10° SW 23:15:39 23° W 23:19:24 10° NW visible
21 Apr 2.6 22:11:55 10° S 22:16:33 67° WSW 22:21:14 10° NNW visible
21 Apr 4.9 23:53:28 10° WSW 23:55:00 11° W 23:56:32 10° WNW visible
22 Apr 2.8 21:13:28 10° SE 21:17:54 44° ENE 21:22:22 10° N visible
22 Apr 3.7 22:51:21 10° SSW 22:55:33 33° W 22:59:48 10° NNW visible
23 Apr 2.3 21:51:55 10° SSE 21:56:36 87° ENE 22:01:20 10° NNW visible
23 Apr 4.7 23:31:48 10° SW 23:34:47 17° W 23:37:47 10° NW visible
24 Apr 3.2 22:31:00 10° S 22:35:30 46° W 22:40:03 10° NNW visible
25 Apr 2.4 21:32:06 10° SSE 21:36:43 61° ENE 21:41:22 10° N visible
25 Apr 4.2 23:10:52 10° SW 23:14:37 23° W 23:18:23 10° NW visible
26 Apr 2.6 22:10:51 10° S 22:15:30 67° WSW 22:20:12 10° NNW visible
26 Apr 4.9 23:52:20 10° WSW 23:53:57 12° W 23:55:34 10° WNW visible
27 Apr 3.7 22:50:16 10° SSW 22:54:30 33° W 22:58:45 10° NNW visible
28 Apr 2.3 21:50:51 10° SSE 21:55:33 86° ENE 22:00:16 10° NNW visible
28 Apr 4.7 23:30:42 10° SW 23:33:43 17° W 23:36:44 10° NW visible
